Location: Lombard
(41.8800°N, 88.0080°W)
Time: 23:53:17
(UTC-05:00)

Transit 2A - Pass Details

Date: 16 February 2023
Orbit: 591 x 964 km, 66.7° (Epoch: 20 March)

Event Time Altitude Azimuth Distance (km) Brightness Sun altitude
Rises 00:02:56 0° 318° (NW) 3,589 - -60.5°
Reaches altitude 10° 00:05:51 10° 306° (NW) 2,673 - -60.5°
Maximum altitude 00:10:53 26° 253° (WSW) 1,805 - -60.5°
Drops below altitude 10° 00:15:57 10° 200° (SSW) 2,686 - -60.4°
Sets 00:18:54 0° 188° (S) 3,609 - -60.4°
